Flag for Brazil

Past Weather in São Luis, Maranhão, Brazil — Yesterday and Last 2 Weeks

Now
79 °F

Clear.


Feels Like: 83 °F
Forecast: 89 / 78 °F
Wind: 6 mph from East

Location: Sao Luiz Aeroporto

Current Time: Jul 4, 2020 at 12:38:53 am

Latest Report: Jul 4, 2020 at 12:00 am


Visibility: 10 mi

Pressure: 29.89 "Hg

Humidity: 94%

Dew Point: 77 °F

Location of São LuisLocation

Past Weather in São Luis — Graph

°F

São Luis Temperature Yesterday

Maximum temperature yesterday: 88 °F (at 12:00 pm)
Minimum temperature yesterday: 77 °F (at 3:00 am)
Average temperature yesterday: 81 °F

High & Low Weather Summary for the Past Weeks

 TemperatureHumidityPressure
High90 °F (Jun 19, 2:00 pm)100% (Jun 20, 4:00 am)30.01 "Hg (Jun 20, 4:00 am)
Low72 °F (Jun 21, 2:00 am)55% (Jun 23, 1:00 pm)29.77 "Hg (Jun 23, 4:00 pm)
Average81 °F84%29.88 "Hg
* Reported Jun 18 11:00 pm — Jul 3 11:00 pm, São Luis. Weather by CustomWeather, © 2020

Note: Actual official high and low records may vary slightly from our data, if they occured in-between our weather recording intervals... More about our weather records

São Luis Weather History for the Previous 24 Hours

Scroll right to see more
 ConditionsComfort  
Time TempWeatherWind HumidityBarometerVisibility
11:00 pm
Fri, Jul 3
79 °FClear.5 mph94%29.89 "Hg10 mi
10:00 pm79 °FPassing clouds.6 mph89%29.89 "HgN/A
9:00 pm79 °FPassing clouds.2 mph89%29.89 "HgN/A
8:00 pm79 °FPassing clouds.3 mph89%29.86 "HgN/A
7:00 pm79 °FPassing clouds.6 mph89%29.86 "HgN/A
6:00 pm81 °FPassing clouds.9 mph89%29.86 "HgN/A
5:00 pm82 °FPartly sunny.9 mph84%29.83 "HgN/A
4:00 pm81 °FPartly sunny.8 mph89%29.83 "HgN/A
3:00 pm81 °FScattered showers. Partly sunny.12 mph89%29.83 "HgN/A
2:00 pm86 °FPartly sunny.9 mph75%29.86 "HgN/A
1:00 pm88 °FScattered clouds.9 mph66%29.86 "HgN/A
12:00 pm88 °FScattered clouds.10 mph70%29.89 "HgN/A
11:00 am86 °FScattered clouds.10 mph75%29.92 "HgN/A
10:00 am86 °FScattered clouds.12 mph70%29.92 "HgN/A
9:00 am82 °FScattered clouds.9 mph84%29.92 "HgN/A
8:00 am82 °FScattered clouds.7 mph84%29.92 "HgN/A
7:00 am79 °FScattered clouds.3 mph89%29.89 "HgN/A
6:00 am77 °FPassing clouds.5 mph94%29.86 "HgN/A
5:00 am77 °FPassing clouds.6 mph94%29.83 "HgN/A
4:00 am77 °FPassing clouds.5 mph94%29.83 "HgN/A
3:00 am77 °FPassing clouds.5 mph94%29.83 "HgN/A
2:00 am79 °FClear.6 mph89%29.86 "Hg10 mi
1:00 am79 °FClear.5 mph94%29.89 "Hg10 mi
12:00 am79 °FClear.6 mph94%29.89 "Hg10 mi
Weather by CustomWeather, © 2020

See weather overview